www.pogodaiklimat.ru

Погода и климат >> Архив погоды >> Киргизия >> Бишкек


АРХИВ ПОГОДЫ в Бишкеке

Время (UTC), дата Ветер
(напр.,м/с)
 
Видим.   Явления Облачность Т
(С)
Тd
(С)
f
(%)
Тe
(С)
Тes
(С)
Комфортность P
(гПа)
Po
(гПа)
Тmin
(С)
Tmax
(С)
R
(мм)
R24
(мм)
S
(см)
21 16.01 ЮВ 1 н/о ясно +2.0 -2.3 73 +1 +1 тепло 1025.1 934.3
00 17.01 ЮВ 1 н/о ясно 0.0 -4.4 72 -2 -2 по сезону 1025.8 934.3
03 17.01 Ю 2 20 км ясно -0.2 -6.7 62 -3 -3 по сезону 1025.8 934.2
06 17.01 СВ 2 20 км ясно +8.1 -7.4 33 +7 +11 тепло 1022.5 933.7
09 17.01 С 2 20 км ясно +8.7 -2.2 46 +7 +10 тепло 1020.4 932.1
12 17.01 ЮЗ 1 20 км ясно +7.3 -1.7 53 +7 +7 тепло 1020.9 932.1
15 17.01 Ю 2 н/о ясно +2.6 -4.8 58 0 0 по сезону 1022.0 931.6 +9.5
18 17.01 Ю 1 н/о ясно +1.5 -7.6 51 0 0 тепло 1020.6 929.9 +9.5
21 17.01 Ю 1 н/о ясно +1.6 -11.5 37 +1 +1 тепло 1018.6 928.2
00 18.01 ЮВ 1 н/о ясно +2.1 -13.6 30 +2 +2 тепло 1017.1 926.9
03 18.01 В 2 20 км 4/0
[Ci fib]
+4.2 -12.2 29 +2 +3 тепло 1014.1 924.8
06 18.01 В 8 20 км 3/0
[Ci fib]
+10.4 -8.2 26 +7 +8 тепло 1009.3 922.3
09 18.01 ЮВ 7 20 км 8/0
[Ci fib]
+14.1 -6.7 23 +12 +13 тепло 1004.7 919.2
12 18.01 ЮЗ 1
{17}
20 км 8/0
[Ac trans Ci fib]
+10.2 -0.9 46 +10 +10 тепло 1007.1 920.4
15 18.01 ЮЗ 1 н/о 10/0
[Ac trans]
+3.7 -1.6 68 +3 +3 тепло 1013.1 923.9 +14.3
18 18.01 В 1 н/о 10/0
[Ac trans]
+1.8 -3.3 69 0 0 тепло 1018.0 927.7 +14.3
21 18.01 ЮВ 1 н/о 8/0
[Ac trans]
+2.5 -3.1 67 +1 +1 тепло 1020.3 929.8
00 19.01 В 1 н/о 8/0
[Ac trans]
+5.3 -4.3 50 +5 +5 тепло 1019.0 929.7
03 19.01 З 1 20 км 10/8 600 м
[Sc Ac trans]
+4.0 -2.2 64 +3 +3 тепло 1021.4 931.5
06 19.01 З 1 20 км 10/5 600 м
[Sc Ac trans Ci fib]
+7.0 -1.4 55 +7 +8 тепло 1020.9 932.0
09 19.01 З 1 20 км 10/0
[Ac trans Ci fib]
+11.0 +0.2 47 +11 +13 тепло 1018.0 930.5
12 19.01 штиль 0 20 км 10/0
[Ac trans Ci fib]
+8.0 -0.7 54 +8 +8 тепло 1019.1 930.7
15 19.01 Ю 1 н/о 10/0
[Ci fib]
+3.8 -0.8 72 +3 +3 тепло 1020.5 930.7 +11.5
18 19.01 штиль 0 н/о 10/0
[Ci fib]
+2.2 -1.5 76 +1 +1 тепло 1019.4 929.2 +11.5
21 19.01 В 1 н/о 10/0
[Ac trans Ci fib]
+4.8 -1.2 65 +4 +4 тепло 1014.9 925.9
00 20.01 ЮВ 1 н/о 10/0
[Ac trans Ci fib]
+1.2 -2.3 77 -0 -0 тепло 1013.6 923.5
03 20.01 ЮЗ 1 20 км 3/0
[Ci fib]
-0.1 -3.1 80 -2 -2 по сезону 1012.0 921.7
06 20.01 З 2 20 км 8/0
[Ac trans Ci fib]
+4.1 -2.1 64 +2 +4 тепло 1013.7 924.5
09 20.01 СЗ 3 20 км 10/5 600 м
[Sc Ac und]
+5.5 +0.3 69 +2 +3 тепло 1014.0 925.3
12 20.01 СЗ 1 20 км 10/6 600 м
[Sc Ac trans]
+3.9 +0.2 77 +3 +3 тепло 1018.2 928.6
15 20.01 СЗ 2 н/о слаб. дождь 10/10 600 м
[Sc]
+2.1 +1.1 93 -1 -1 по сезону 1021.8 931.4 +6.0
18 20.01 З 2 н/о слаб. дождь 10/10 600 м
[Sc]
+1.1 0.0 92 -2 -2 по сезону 1023.7 932.7 +6.0 0.4
21 20.01 З 1 н/о слаб. снег {дождь} 10/10 600 м
[Sc]
+0.4 -1.0 90 -2 -2 по сезону 1026.5 935.1
00 21.01 штиль 0 н/о слаб. снег {дождь} 10/10 600 м
[Sc]
+0.4 -1.0 90 -1 -1 тепло 1026.6 935.2
03 21.01 В 1 2000 м 10/10 300 м
[Frnb Ns]
+0.4 -0.5 94 -2 -2 по сезону 1028.4 936.8 2
06 21.01 ЮЗ 1 10 км {снег} 10/8 600 м
[Sc Ac trans]
+1.8 -1.6 78 0 +1 по сезону 1029.2 937.9 4
09 21.01 СЗ 2 10 км 10/6 1000 м
[Sc Ac trans]
+2.0 -2.0 75 -1 -1 по сезону 1030.0 938.7
12 21.01 СЗ 2 10 км снег 10/10 300 м
[Frnb Ns]
+0.4 -1.0 90 -3 -3 по сезону 1032.8 940.8
15 21.01 З 2 н/о снег 10/10 300 м
[Frnb Ns]
-1.0 -2.6 89 -5 -5 по сезону 1033.3 940.8 +0.3
18 21.01 ЮЗ 1 н/о {снег} 10/5 1000 м
[Sc Ac trans]
-0.9 -2.8 87 -3 -3 по сезону 1032.2 939.8 +3.0 2
21 21.01 штиль 0 н/о 10/10 1000 м
[Sc]
-1.2 -2.8 89 -2 -2 по сезону 1030.7 938.4
00 22.01 ЮЗ 1 н/о слаб. снег 10/10 600 м
[Sc]
-1.4 -3.1 88 -4 -4 по сезону 1028.8 936.5
03 22.01 ЮЗ 2 10 км {снег} 10/10 600 м
[Sc]
-1.4 -4.1 82 -5 -5 по сезону 1027.7 935.5 4
06 22.01 штиль 0 10 км {снег} 10/10 600 м
[Sc]
-0.6 -4.0 78 -2 -2 по сезону 1026.7 934.9 0.2
09 22.01 СЗ 1 10 км 10/10 600 м
[Sc]
0.0 -4.1 74 -2 -2 по сезону 1024.3 932.9
12 22.01 З 1 10 км 10/10 600 м
[Sc]
-0.2 -3.8 77 -2 -2 по сезону 1024.1 932.6
15 22.01 З 1 н/о 10/10 600 м
[Sc]
-0.7 -3.5 81 -3 -3 по сезону 1024.4 932.7 +0.3
18 22.01 З 1 н/о 10/10 600 м
[Sc]
-0.8 -3.6 81 -3 -3 по сезону 1024.0 932.4 +0.3 0.0
21 22.01 З 1 н/о 10/10 600 м
[Sc]
-1.3 -4.9 76 -3 -3 по сезону 1024.5 932.6
00 23.01 З 2 н/о 10/10 600 м
[Sc]
-1.0 -4.9 75 -5 -5 по сезону 1025.6 933.7
03 23.01 штиль 0 10 км 10/10 600 м
[Sc]
-1.2 -4.8 76 -2 -2 по сезону 1026.9 934.8 2
06 23.01 ЮВ 1 10 км 10/8 600 м
[Sc Ac trans]
+0.2 -4.9 69 -1 -1 по сезону 1026.7 935.2
09 23.01 З 1 20 км 6/0
[Ac trans Ci fib]
+3.1 -4.5 57 +2 +5 по сезону 1024.4 933.9
12 23.01 З 1 20 км 8/0
[Ac trans Ci fib]
+2.0 -4.5 62 +1 +1 по сезону 1025.8 934.9
15 23.01 Ю 1 н/о 3/0
[Ci fib]
-1.1 -6.5 67 -3 -3 по сезону 1028.2 936.1 +3.9
18 23.01 ЮЗ 1 н/о ясно -2.8 -7.7 69 -5 -5 по сезону 1029.2 936.4 +3.9

 

Местоположение метеостанции Бишкек (город Бишкек, Киргизия): широта 42.85 долгота 74.53 высота над уровнем моря 760 м.

В архиве по умолчанию представлена погода в Бишкеке за последнюю неделю. Архивные данные за месяц целиком и за предыдущие месяцы, начиная с января 2011 года, Вы можете получить, выбрав интересующий диапазон дат из раскрывающегося списка и нажав кнопку "Ввод!".


*Определитесь, кто Вы:
робот инопланетянин человек

Внимание! Время в таблицах - всемирное. Для получения местного времени необходимо прибавить поправку, которая равна 6 ч.

Смотрите также архив погоды в соседних городах и на ближайших метеорологических станциях:

Погода в Байтике (Чуйская область, Киргизия) (22 км)
Погода в Иссык-Ате (город Бишкек, Киргизия) (28 км)
Погода в Яны-Жере (Чуйская область, Киргизия) (46 км)
Погода в Бериктасе (Жамбылская область, Казахстан) (49 км)
Погода в Кара-Балте (Чуйская область, Киргизия) (58 км)
Погода в Тео-Ашуу (Чуйская область, Киргизия) (58 км)
Погода в Токмоке (Чуйская область, Киргизия) (61 км)
Погода в Кордае (Жамбылская область, Казахстан) (66 км)
Погода в Сусамыре (Чуйская область, Киргизия) (90 км)
Погода в Отаре (Жамбылская область, Казахстан) (96 км)

Пояснения к столбцам:

Ветер - указаны скорость ветра в м/с - средняя за 10 мин, порывы в срок и между сроками (в фигурных скобках) и направление, откуда дует ветер: С - северный, СВ - северо-восточный, В - восточный, ЮВ - юго-восточный, Ю - южный, ЮЗ - юго-западный, З - западный, СЗ - северо-западный.
Видимость - горизонтальная дальность видимости в метрах или километрах. При видимости от 1 до 10 км при отсутствии осадков обычно наблюдается дымка, при ухудшении видимости до 1 км и менее - туман. В сухую погоду видимость может ухудшаться дымом, пылью или мглою.
Явления - указаны атмосферные явления, наблюдавшиеся в срок или в последний час перед сроком; фигурными скобками обозначены явления, наблюдавшиеся между сроками (за 1-3 часа до срока); квадратными скобками обозначены град или гололедные отложения с указанием их диаметра в мм.
Облачность - указаны через наклонную черту общая и нижняя облачность в баллах и высота нижней границы облаков в метрах; квадратными скобками обозначены формы облаков: Ci - перистые, Cs - перисто-слоистые, Cc - перисто-кучевые, Ac - высококучевые, As - высокослоистые, Sc - слоисто-кучевые, Ns - слоисто-дождевые, Cu - кучевые, Cb - кучево-дождевые. Подробнее классификацию облаков см. в Атласе облаков (PDF).
T - Температура воздуха - температура, измеренная на высоте 2 м над землей.
Td - Температура точки росы - температура, при понижении до которой содержащийся в воздухе водяной пар достигнет насыщения.
f - Относительная влажность воздуха - влажноcть воздуха, измеренная на высоте 2 м над землей.
Te - Эффективная температура - температура, которую ощущает одетый по сезону человек в тени. Характеристика душности погоды. При расчете учитывается влияние влажности воздуха и скорости ветра на теплоощущения человека.
Tes - Эффективная температура на солнце - температура, которую ощущает человек, с поправкой на солнечный нагрев. Характеристика знойности погоды. Зависит от высоты солнца над горизонтом, облачности и скорости ветра. Ночью, в пасмурную погоду, а также при ветре 12 м/с и более поправка равна нулю.
P - Атмосферное давление - приведенное к уровню моря атмосферное давление.
Po - Атмосферное давление - измеренное на уровне метеостанции атмосферное давление.
Tmin - Минимальная температура - минимум температуры воздуха на высоте 2 м над землей.
Tmax - Максимальная температура - максимум температуры воздуха на высоте 2 м над землей.
R - Количество осадков - Количество выпавших осадков за период времени, мм. При наведении курсора мыши на число - период времени, за который выпало указанное количество осадков.
R24 - Количество осадков - Количество выпавших осадков за 24 часа, мм.
S - Снежный покров - Высота снежного покрова, см. При наведении курсора мыши на число - состояние снежного покрова и степень покрытия местности в баллах.